Retour au catalogue

GSAT 3

EDUSAT

ActifCommunicationsGEO
NORAD 28417·PAYLOAD·🇮🇳 India

Lancé Sep 20, 2004 depuis Satish Dhawan Space Centre

Loading…

TLE

FraisSource: Space-Track

Époque: Sep 14, 2026, 13:24 UTC

1 28417U 04036A   26257.55900444  .00000063  00000-0  00000-0 0  9997
2 28417  11.5304  40.5648 0004327 169.7254 205.8923  0.99265802 80003

Suivez GSAT 3 en temps réel avec AllMySat

Download on the App Store